Precipitable_Water
0.53 0.53 0.57 0.53 0.52 0.48 0.45 0.47 0.51 0.53 0.55 0.55 0.54 0.57 0.62 0.65 0.67 0.68 0.69 0.72 0.74 0.79 0.80 0.78 0.78 0.82 0.85 0.96 1.01 0.97 0.98 0.96 0.94 0.85 0.84 0.90 0.82 0.83 0.92 0.90 0.91 1.03 0.98 0.89 0.86 0.70 0.61 0.53 0.60 0.78 0.83 0.83 0.96 0.97 0.98 0.97 0.95 0.97 1.02 1.12 1.18 1.20 1.25
0.61 0.60 0.60 0.55 0.49 0.46 0.45 0.49 0.48 0.49 0.52 0.54 0.54 0.53 0.57 0.62 0.63 0.63 0.65 0.66 0.70 0.73 0.73 0.72 0.73 0.74 0.76 0.80 0.83 0.86 0.86 0.86 0.88 0.89 0.86 0.84 0.83 0.84 0.89 0.85 0.90 0.85 0.81 0.78 0.77 0.76 0.65 0.61 0.63 0.67 0.68 0.81 0.86 0.87 0.88 0.89 0.88 0.93 0.97 1.04 1.10 1.14 1.16
0.65 0.64 0.61 0.53 0.49 0.47 0.42 0.43 0.44 0.45 0.45 0.47 0.50 0.51 0.50 0.53 0.57 0.59 0.60 0.62 0.66 0.68 0.69 0.70 0.70 0.68 0.67 0.72 0.79 0.82 0.85 0.82 0.81 0.80 0.78 0.80 0.85 0.87 0.86 0.79 0.70 0.69 0.63 0.60 0.61 0.63 0.71 0.72 0.56 0.52 0.51 0.50 0.56 0.70 0.80 0.80 0.84 0.89 0.91 0.97 1.05 1.13 1.16
0.66 0.63 0.59 0.53 0.49 0.47 0.41 0.39 0.37 0.36 0.38 0.38 0.43 0.48 0.51 0.51 0.51 0.50 0.49 0.49 0.53 0.57 0.58 0.58 0.57 0.61 0.65 0.68 0.72 0.74 0.71 0.71 0.71 0.70 0.67 0.70 0.72 0.72 0.70 0.68 0.63 0.57 0.51 0.47 0.50 0.55 0.51 0.39 0.34 0.32 0.33 0.33 0.31 0.30 0.43 0.54 0.64 0.76 0.83 0.86 0.93 0.99 1.09
0.68 0.63 0.57 0.51 0.50 0.46 0.42 0.37 0.35 0.34 0.33 0.35 0.36 0.39 0.44 0.47 0.46 0.45 0.43 0.41 0.41 0.42 0.42 0.44 0.44 0.45 0.47 0.49 0.51 0.53 0.56 0.57 0.57 0.55 0.54 0.54 0.57 0.56 0.50 0.47 0.45 0.43 0.41 0.40 0.42 0.38 0.32 0.31 0.30 0.28 0.28 0.32 0.34 0.35 0.45 0.53 0.58 0.61 0.70 0.75 0.83 0.89 0.94
0.73 0.66 0.60 0.54 0.55 0.48 0.43 0.37 0.33 0.32 0.33 0.32 0.33 0.32 0.36 0.38 0.38 0.37 0.38 0.40 0.41 0.42 0.42 0.41 0.40 0.39 0.37 0.35 0.34 0.35 0.37 0.39 0.41 0.40 0.40 0.40 0.38 0.35 0.36 0.41 0.41 0.42 0.43 0.45 0.43 0.38 0.37 0.36 0.33 0.28 0.31 0.33 0.27 0.30 0.44 0.52 0.54 0.59 0.63 0.65 0.71 0.77 0.86
0.77 0.69 0.62 0.58 0.58 0.51 0.44 0.37 0.34 0.33 0.33 0.32 0.33 0.33 0.36 0.38 0.38 0.39 0.40 0.41 0.42 0.42 0.41 0.40 0.39 0.37 0.35 0.32 0.31 0.30 0.32 0.34 0.35 0.34 0.33 0.33 0.34 0.34 0.35 0.33 0.32 0.33 0.34 0.36 0.36 0.36 0.34 0.31 0.28 0.26 0.25 0.26 0.28 0.26 0.36 0.46 0.51 0.49 0.52 0.60 0.67 0.73 0.79
0.80 0.70 0.64 0.61 0.59 0.54 0.47 0.41 0.40 0.39 0.38 0.38 0.37 0.38 0.41 0.40 0.40 0.41 0.41 0.41 0.41 0.42 0.43 0.42 0.41 0.40 0.39 0.38 0.36 0.34 0.33 0.32 0.31 0.32 0.32 0.32 0.31 0.30 0.29 0.27 0.27 0.29 0.31 0.31 0.30 0.30 0.31 0.29 0.28 0.27 0.24 0.18 0.18 0.22 0.24 0.37 0.41 0.45 0.47 0.53 0.64 0.68 0.72
0.81 0.72 0.68 0.67 0.64 0.58 0.53 0.49 0.46 0.44 0.44 0.45 0.46 0.48 0.50 0.49 0.48 0.47 0.46 0.46 0.47 0.48 0.49 0.49 0.48 0.47 0.45 0.41 0.39 0.38 0.37 0.38 0.34 0.34 0.36 0.37 0.36 0.35 0.33 0.31 0.27 0.27 0.29 0.28 0.27 0.28 0.29 0.31 0.31 0.29 0.27 0.23 0.16 0.13 0.18 0.22 0.30 0.35 0.44 0.44 0.54 0.63 0.64
0.79 0.69 0.68 0.68 0.66 0.63 0.61 0.58 0.54 0.50 0.50 0.51 0.51 0.53 0.53 0.53 0.52 0.50 0.48 0.49 0.52 0.53 0.53 0.52 0.51 0.51 0.49 0.46 0.45 0.46 0.46 0.47 0.44 0.41 0.41 0.41 0.43 0.44 0.44 0.42 0.40 0.39 0.40 0.42 0.41 0.39 0.37 0.37 0.36 0.35 0.32 0.28 0.26 0.19 0.14 0.14 0.16 0.22 0.29 0.37 0.37 0.47 0.54
0.81 0.71 0.69 0.69 0.70 0.66 0.66 0.65 0.63 0.59 0.57 0.56 0.57 0.58 0.57 0.56 0.56 0.54 0.52 0.50 0.51 0.54 0.55 0.55 0.54 0.52 0.50 0.49 0.51 0.53 0.54 0.55 0.52 0.51 0.49 0.47 0.46 0.47 0.49 0.50 0.49 0.47 0.49 0.50 0.50 0.51 0.49 0.48 0.46 0.43 0.41 0.40 0.38 0.29 0.26 0.20 0.18 0.23 0.24 0.29 0.34 0.37 0.45
0.87 0.79 0.71 0.73 0.75 0.71 0.69 0.68 0.66 0.64 0.63 0.63 0.63 0.63 0.61 0.60 0.59 0.57 0.55 0.54 0.53 0.54 0.56 0.56 0.56 0.55 0.54 0.52 0.52 0.53 0.56 0.56 0.53 0.52 0.53 0.53 0.52 0.51 0.50 0.51 0.53 0.51 0.50 0.51 0.52 0.54 0.54 0.53 0.53 0.52 0.50 0.49 0.48 0.45 0.40 0.36 0.25 0.29 0.32 0.26 0.30 0.34 0.34
0.87 0.84 0.76 0.73 0.74 0.74 0.73 0.71 0.70 0.68 0.64 0.65 0.66 0.66 0.66 0.65 0.65 0.63 0.61 0.58 0.56 0.58 0.58 0.59 0.59 0.58 0.58 0.57 0.56 0.55 0.56 0.55 0.53 0.53 0.54 0.55 0.53 0.53 0.53 0.51 0.52 0.53 0.52 0.52 0.54 0.56 0.56 0.55 0.54 0.52 0.53 0.52 0.52 0.52 0.49 0.45 0.39 0.35 0.40 0.37 0.35 0.36 0.37
0.82 0.82 0.77 0.76 0.75 0.77 0.77 0.77 0.75 0.73 0.72 0.69 0.69 0.68 0.67 0.67 0.69 0.70 0.68 0.68 0.67 0.66 0.65 0.66 0.65 0.63 0.61 0.60 0.61 0.60 0.60 0.57 0.55 0.55 0.56 0.56 0.55 0.54 0.54 0.54 0.55 0.55 0.57 0.54 0.54 0.56 0.58 0.57 0.57 0.56 0.56 0.53 0.50 0.50 0.48 0.46 0.42 0.41 0.45 0.49 0.47 0.44 0.42
0.85 0.83 0.79 0.79 0.78 0.79 0.80 0.82 0.80 0.79 0.75 0.74 0.76 0.75 0.74 0.74 0.73 0.71 0.70 0.70 0.71 0.71 0.71 0.71 0.72 0.71 0.68 0.68 0.69 0.69 0.66 0.65 0.63 0.61 0.60 0.59 0.58 0.58 0.56 0.54 0.54 0.55 0.56 0.54 0.52 0.52 0.56 0.59 0.61 0.60 0.61 0.60 0.57 0.52 0.51 0.45 0.41 0.40 0.41 0.47 0.47 0.50 0.48
0.85 0.84 0.83 0.82 0.81 0.82 0.84 0.86 0.86 0.82 0.79 0.79 0.81 0.80 0.80 0.81 0.80 0.77 0.76 0.76 0.76 0.75 0.75 0.74 0.76 0.75 0.74 0.72 0.71 0.72 0.71 0.69 0.68 0.68 0.67 0.66 0.64 0.65 0.62 0.59 0.56 0.56 0.56 0.54 0.53 0.53 0.56 0.57 0.60 0.60 0.61 0.62 0.61 0.60 0.57 0.53 0.47 0.42 0.39 0.40 0.46 0.45 0.46
0.84 0.84 0.81 0.85 0.86 0.88 0.90 0.97 0.94 0.86 0.84 0.83 0.81 0.82 0.82 0.83 0.84 0.84 0.82 0.82 0.82 0.81 0.79 0.80 0.80 0.80 0.79 0.77 0.74 0.73 0.74 0.71 0.71 0.72 0.72 0.71 0.70 0.69 0.66 0.62 0.60 0.59 0.58 0.54 0.53 0.52 0.52 0.54 0.56 0.58 0.59 0.61 0.61 0.59 0.58 0.55 0.51 0.47 0.45 0.40 0.40 0.40 0.44
0.83 0.85 0.85 0.90 0.87 0.90 0.91 0.94 1.00 0.94 0.90 0.86 0.85 0.84 0.86 0.85 0.84 0.85 0.85 0.84 0.85 0.85 0.85 0.85 0.83 0.82 0.82 0.82 0.81 0.78 0.75 0.74 0.74 0.74 0.73 0.71 0.69 0.69 0.68 0.65 0.63 0.63 0.62 0.60 0.58 0.56 0.55 0.54 0.56 0.58 0.58 0.59 0.60 0.60 0.59 0.56 0.53 0.50 0.45 0.41 0.41 0.40 0.38
0.85 0.88 0.90 0.95 1.02 1.01 1.05 1.01 0.98 0.97 0.97 0.93 0.91 0.90 0.88 0.87 0.86 0.85 0.85 0.85 0.87 0.88 0.88 0.87 0.85 0.83 0.82 0.83 0.84 0.84 0.78 0.74 0.76 0.75 0.73 0.72 0.71 0.70 0.69 0.68 0.66 0.66 0.67 0.66 0.65 0.63 0.61 0.59 0.59 0.58 0.58 0.59 0.59 0.58 0.56 0.55 0.53 0.49 0.44 0.41 0.38 0.38 0.36
0.88 0.85 0.87 0.89 0.94 1.03 1.06 1.09 1.10 1.01 0.98 1.04 1.03 1.00 0.97 0.92 0.92 0.88 0.86 0.86 0.85 0.85 0.85 0.86 0.86 0.85 0.83 0.82 0.84 0.85 0.84 0.77 0.75 0.75 0.75 0.75 0.74 0.71 0.69 0.69 0.67 0.67 0.67 0.67 0.66 0.64 0.63 0.61 0.60 0.58 0.57 0.56 0.56 0.55 0.53 0.51 0.49 0.46 0.44 0.40 0.38 0.37 0.36
0.87 0.89 0.96 0.99 0.98 0.98 1.05 1.04 1.06 1.05 0.95 1.04 1.02 1.02 1.06 1.05 1.04 0.95 0.90 0.86 0.84 0.83 0.83 0.84 0.85 0.83 0.84 0.85 0.84 0.85 0.85 0.81 0.76 0.75 0.75 0.76 0.76 0.74 0.72 0.71 0.69 0.69 0.68 0.66 0.63 0.61 0.60 0.57 0.57 0.55 0.55 0.55 0.54 0.53 0.51 0.49 0.47 0.44 0.42 0.40 0.38 0.38 0.38
0.95 0.91 0.91 0.99 1.07 1.07 1.01 1.04 1.10 1.10 1.09 1.05 1.00 0.97 0.94 0.92 0.92 0.96 0.95 0.89 0.84 0.83 0.81 0.80 0.78 0.76 0.75 0.78 0.81 0.80 0.82 0.82 0.79 0.76 0.76 0.77 0.78 0.77 0.75 0.74 0.73 0.71 0.71 0.68 0.65 0.62 0.60 0.59 0.57 0.56 0.57 0.57 0.56 0.54 0.53 0.50 0.47 0.45 0.44 0.41 0.38 0.38 0.37
0.90 1.00 0.95 0.89 0.89 0.97 0.95 0.89 0.91 0.96 1.00 0.98 0.94 0.93 0.91 0.90 0.90 0.86 0.83 0.85 0.84 0.82 0.80 0.78 0.76 0.75 0.77 0.78 0.78 0.77 0.77 0.79 0.81 0.79 0.76 0.75 0.76 0.77 0.77 0.77 0.76 0.75 0.73 0.70 0.67 0.63 0.59 0.57 0.56 0.56 0.56 0.56 0.58 0.57 0.54 0.50 0.47 0.44 0.42 0.40 0.39 0.38 0.37
0.83 0.86 0.87 0.84 0.88 0.92 0.92 0.90 0.89 0.83 0.82 0.84 0.85 0.91 0.89 0.85 0.83 0.80 0.76 0.75 0.76 0.78 0.80 0.81 0.80 0.80 0.80 0.82 0.83 0.82 0.81 0.80 0.82 0.81 0.78 0.76 0.75 0.77 0.78 0.78 0.77 0.75 0.73 0.71 0.69 0.66 0.62 0.59 0.57 0.54 0.53 0.55 0.57 0.56 0.54 0.50 0.47 0.44 0.41 0.40 0.40 0.39 0.38
0.82 0.85 0.81 0.77 0.77 0.78 0.81 0.78 0.77 0.77 0.77 0.77 0.82 0.81 0.74 0.69 0.68 0.69 0.71 0.71 0.72 0.74 0.76 0.78 0.77 0.77 0.77 0.78 0.79 0.80 0.80 0.79 0.79 0.78 0.77 0.76 0.79 0.81 0.80 0.79 0.77 0.75 0.75 0.74 0.72 0.70 0.64 0.61 0.59 0.54 0.52 0.51 0.52 0.54 0.56 0.53 0.49 0.45 0.43 0.40 0.39 0.38 0.38
0.70 0.71 0.72 0.70 0.68 0.66 0.65 0.67 0.66 0.64 0.63 0.63 0.62 0.59 0.57 0.58 0.61 0.67 0.70 0.70 0.71 0.74 0.75 0.74 0.74 0.77 0.79 0.80 0.82 0.83 0.82 0.80 0.77 0.77 0.78 0.81 0.80 0.79 0.78 0.77 0.74 0.75 0.73 0.76 0.76 0.72 0.68 0.64 0.61 0.56 0.53 0.52 0.52 0.54 0.55 0.55 0.54 0.50 0.47 0.44 0.41 0.40 0.39
0.61 0.62 0.64 0.61 0.59 0.57 0.57 0.56 0.57 0.58 0.58 0.56 0.55 0.58 0.63 0.65 0.66 0.66 0.67 0.66 0.66 0.67 0.69 0.70 0.70 0.69 0.70 0.71 0.72 0.73 0.75 0.75 0.74 0.77 0.81 0.82 0.82 0.82 0.80 0.76 0.74 0.72 0.75 0.75 0.72 0.68 0.64 0.62 0.60 0.57 0.56 0.54 0.53 0.54 0.55 0.55 0.53 0.51 0.50 0.47 0.44 0.40 0.41
0.49 0.50 0.50 0.50 0.50 0.50 0.50 0.49 0.49 0.52 0.56 0.57 0.55 0.53 0.53 0.53 0.56 0.59 0.59 0.58 0.55 0.53 0.54 0.54 0.52 0.50 0.48 0.49 0.52 0.56 0.60 0.64 0.66 0.70 0.75 0.78 0.82 0.82 0.80 0.78 0.76 0.73 0.73 0.74 0.72 0.69 0.67 0.64 0.61 0.59 0.58 0.56 0.54 0.52 0.53 0.54 0.53 0.51 0.49 0.47 0.45 0.43 0.43
0.49 0.49 0.48 0.48 0.48 0.47 0.45 0.46 0.45 0.45 0.45 0.49 0.52 0.53 0.53 0.52 0.50 0.50 0.52 0.52 0.49 0.47 0.49 0.49 0.49 0.47 0.45 0.44 0.46 0.50 0.54 0.58 0.61 0.62 0.66 0.71 0.77 0.80 0.82 0.77 0.75 0.77 0.76 0.74 0.73 0.69 0.65 0.65 0.64 0.62 0.59 0.55 0.53 0.53 0.54 0.57 0.56 0.54 0.52 0.50 0.48 0.46 0.45
0.49 0.48 0.47 0.46 0.44 0.42 0.40 0.39 0.39 0.40 0.38 0.39 0.40 0.41 0.43 0.43 0.45 0.45 0.46 0.47 0.47 0.48 0.49 0.49 0.48 0.45 0.43 0.42 0.42 0.44 0.46 0.51 0.56 0.59 0.60 0.63 0.65 0.66 0.68 0.69 0.71 0.70 0.67 0.66 0.66 0.66 0.66 0.65 0.62 0.59 0.56 0.53 0.50 0.49 0.50 0.53 0.55 0.54 0.52 0.50 0.48 0.47 0.45
0.48 0.48 0.47 0.45 0.43 0.43 0.43 0.42 0.41 0.41 0.38 0.40 0.40 0.42 0.45 0.48 0.49 0.49 0.48 0.49 0.50 0.49 0.50 0.51 0.50 0.48 0.47 0.46 0.46 0.45 0.45 0.45 0.46 0.48 0.51 0.54 0.55 0.57 0.60 0.64 0.65 0.66 0.66 0.64 0.63 0.61 0.60 0.59 0.55 0.53 0.52 0.50 0.48 0.48 0.50 0.53 0.52 0.51 0.49 0.47 0.46 0.44 0.43
0.50 0.49 0.48 0.47 0.47 0.46 0.44 0.43 0.41 0.42 0.41 0.41 0.42 0.44 0.46 0.48 0.51 0.53 0.53 0.53 0.53 0.52 0.51 0.51 0.51 0.51 0.49 0.48 0.48 0.48 0.48 0.47 0.46 0.46 0.48 0.51 0.53 0.54 0.55 0.59 0.61 0.61 0.59 0.57 0.57 0.57 0.57 0.54 0.50 0.49 0.50 0.48 0.47 0.49 0.51 0.51 0.48 0.46 0.44 0.42 0.40 0.39 0.38
0.55 0.53 0.52 0.52 0.52 0.50 0.48 0.45 0.44 0.43 0.42 0.41 0.41 0.42 0.44 0.47 0.49 0.53 0.55 0.54 0.53 0.53 0.51 0.51 0.52 0.52 0.52 0.51 0.49 0.47 0.46 0.45 0.44 0.45 0.47 0.48 0.50 0.53 0.55 0.56 0.57 0.56 0.55 0.55 0.54 0.53 0.52 0.50 0.49 0.50 0.51 0.49 0.48 0.47 0.49 0.48 0.46 0.44 0.41 0.39 0.38 0.37 0.36
0.55 0.56 0.55 0.54 0.53 0.51 0.50 0.48 0.47 0.45 0.44 0.43 0.41 0.41 0.42 0.45 0.49 0.52 0.55 0.55 0.54 0.52 0.52 0.51 0.51 0.51 0.51 0.50 0.50 0.48 0.46 0.45 0.44 0.44 0.45 0.45 0.46 0.46 0.47 0.48 0.49 0.49 0.48 0.47 0.48 0.48 0.48 0.48 0.49 0.49 0.48 0.47 0.46 0.46 0.46 0.44 0.44 0.43 0.40 0.39 0.37 0.36 0.36
0.54 0.53 0.53 0.52 0.50 0.51 0.52 0.52 0.52 0.50 0.49 0.46 0.45 0.45 0.45 0.45 0.46 0.48 0.51 0.53 0.53 0.53 0.53 0.53 0.52 0.52 0.52 0.51 0.51 0.50 0.47 0.46 0.45 0.45 0.44 0.44 0.43 0.43 0.43 0.42 0.42 0.43 0.44 0.44 0.45 0.46 0.47 0.48 0.48 0.48 0.47 0.47 0.47 0.46 0.45 0.44 0.42 0.41 0.39 0.37 0.37 0.35 0.35
0.54 0.53 0.51 0.50 0.48 0.47 0.48 0.53 0.55 0.54 0.51 0.49 0.47 0.45 0.45 0.45 0.44 0.45 0.47 0.49 0.52 0.53 0.53 0.53 0.52 0.52 0.53 0.53 0.52 0.49 0.48 0.47 0.46 0.45 0.43 0.41 0.41 0.41 0.42 0.43 0.44 0.45 0.46 0.47 0.47 0.47 0.46 0.47 0.48 0.48 0.47 0.46 0.45 0.45 0.45 0.43 0.40 0.38 0.37 0.36 0.35 0.33 0.33
0.56 0.54 0.52 0.51 0.48 0.45 0.44 0.45 0.47 0.47 0.47 0.46 0.45 0.44 0.43 0.42 0.42 0.43 0.45 0.49 0.52 0.53 0.53 0.52 0.52 0.52 0.52 0.50 0.47 0.44 0.44 0.45 0.45 0.45 0.45 0.43 0.43 0.42 0.42 0.44 0.45 0.46 0.47 0.47 0.47 0.47 0.47 0.46 0.44 0.43 0.43 0.44 0.46 0.46 0.42 0.38 0.38 0.37 0.36 0.34 0.32 0.31 0.30
Wind_Speed
5 4 4 4 4 3 3 4 4 4 4 4 5 5 5 4 4 3 3 3 4 5 5 5 5 6 6 7 8 9 10 10 11 12 13 13 13 13 13 12 12 12 11 12 12 12 12 12 12 12 12 11 11 12 12 12 13 13 14 15 17 19 20
5 4 4 5 4 4 3 3 3 4 4 4 4 4 4 4 4 3 3 3 3 3 3 3 3 4 4 5 6 7 8 8 9 10 11 11 12 12 11 11 11 11 11 11 11 11 10 10 11 11 11 11 11 11 12 12 13 13 13 14 15 16 18
5 5 5 5 4 4 3 3 3 3 3 4 3 3 3 3 3 3 3 3 3 3 3 3 3 3 3 3 4 4 5 5 6 7 8 9 9 9 10 10 10 10 10 10 10 10 9 10 10 11 11 11 11 12 12 12 12 12 12 12 13 14 15
7 6 5 5 4 4 3 3 3 3 3 3 3 3 3 3 3 3 3 3 3 3 3 3 3 3 3 3 3 4 4 4 4 5 6 6 7 7 8 8 8 8 9 9 9 9 9 10 10 11 11 11 10 11 10 10 10 11 10 10 10 11 12
8 7 6 5 4 3 3 3 4 3 3 3 3 3 3 3 3 2 2 2 2 2 2 1 2 2 2 2 3 3 4 4 4 4 5 5 6 6 7 7 7 7 8 8 8 9 9 9 9 10 10 10 9 9 9 8 8 8 8 9 8 8 8
9 8 6 5 4 3 3 3 4 4 3 3 3 3 3 3 3 2 2 2 2 2 2 2 2 2 1 1 2 2 2 3 3 4 4 4 5 5 5 6 6 6 7 7 7 7 7 8 8 9 10 10 10 10 9 8 8 8 8 8 8 8 8
10 8 7 6 5 4 3 3 3 4 4 3 3 3 3 3 3 3 3 3 2 2 2 2 2 2 2 2 2 1 1 1 1 2 2 3 3 3 3 4 4 4 5 5 5 5 6 6 6 7 8 9 9 9 9 9 8 8 8 8 8 8 8
11 9 7 6 6 5 4 3 4 4 4 4 4 4 4 4 3 3 3 3 3 3 3 3 3 3 2 2 2 2 1 1 1 0 1 1 1 1 2 2 2 2 3 3 3 4 4 4 4 5 5 6 7 8 8 9 8 8 8 8 8 8 8
13 10 9 8 7 7 5 4 4 4 4 5 4 4 4 4 3 3 3 3 3 3 3 3 3 2 2 2 1 1 1 1 1 1 0 0 0 1 1 1 1 1 2 2 2 2 3 3 3 4 4 4 5 6 7 7 8 8 8 8 9 9 9
15 13 12 11 9 9 8 6 5 5 5 5 5 4 4 4 3 3 3 3 3 2 2 2 2 1 1 0 0 0 0 1 1 1 1 1 1 1 1 1 2 2 2 2 2 2 3 3 3 3 4 4 4 5 6 6 7 8 8 8 9 9 10
16 14 13 13 11 10 10 9 8 7 7 6 6 5 4 4 3 3 3 3 3 2 2 2 2 2 2 2 2 2 2 2 2 2 2 2 2 2 2 2 3 3 3 3 3 4 4 4 4 4 4 4 4 5 6 7 7 8 8 9 9 10 11
17 16 15 14 14 13 12 11 10 9 9 8 7 7 6 5 5 4 4 4 4 4 4 4 4 4 4 4 4 4 4 4 4 4 4 4 4 4 4 4 4 4 4 4 4 5 5 5 5 5 5 5 6 6 6 7 8 9 9 10 10 11 11
18 18 17 16 16 15 15 14 13 11 11 10 10 9 9 8 7 6 6 6 6 5 5 5 6 6 6 6 6 6 6 6 5 6 6 6 6 6 6 6 6 5 5 5 5 5 6 6 6 6 6 7 7 7 8 8 10 10 11 11 12 12 12
19 20 19 18 18 18 17 16 15 14 13 12 12 11 11 10 10 9 8 8 8 7 7 7 7 7 7 8 8 9 8 8 8 8 8 8 8 8 7 8 8 8 7 6 6 6 7 7 7 7 7 8 8 8 9 10 11 12 12 12 13 13 14
20 21 20 20 20 20 19 18 17 15 15 14 13 13 12 11 11 10 10 10 10 9 9 8 8 8 8 9 9 10 10 10 10 10 10 10 10 10 9 9 10 10 9 8 8 8 8 8 8 9 9 9 9 10 10 11 11 12 13 14 14 14 15
20 21 21 21 22 21 20 20 19 17 16 15 15 14 13 12 12 11 11 11 11 11 11 10 10 10 11 11 11 11 11 11 12 12 12 12 12 12 12 11 12 11 11 11 10 10 10 10 10 10 10 10 10 11 12 12 13 13 14 15 15 16 16
20 21 21 21 22 21 21 20 20 19 18 17 16 16 15 14 14 13 13 13 13 13 12 12 12 13 13 13 13 13 14 14 14 13 13 13 14 14 14 14 14 14 13 13 13 12 12 12 12 12 12 12 12 13 14 14 14 15 16 16 17 17 17
21 21 21 21 22 22 22 22 21 19 19 18 18 17 17 16 16 16 15 15 15 15 15 15 16 16 16 17 17 17 16 17 17 16 16 15 15 15 15 15 15 15 15 15 15 14 14 13 14 14 14 14 15 15 16 16 16 17 17 18 19 18 18
20 20 19 20 22 22 23 22 21 19 19 19 19 18 18 18 18 18 18 18 17 17 17 18 19 19 20 20 21 21 20 19 19 19 18 18 17 17 17 17 17 17 17 16 16 16 16 16 16 16 16 16 17 17 18 18 18 19 19 20 20 20 20
18 18 18 19 20 21 22 21 20 19 19 20 19 18 18 19 19 19 19 20 20 20 20 20 20 21 21 21 22 23 22 21 21 21 20 20 19 19 19 19 19 18 18 18 18 18 18 18 18 17 17 18 18 19 19 20 20 20 20 20 20 21 21
17 17 18 18 18 19 21 21 21 20 19 20 19 18 18 18 18 19 20 21 21 21 21 22 22 22 22 21 20 21 22 23 23 22 22 21 21 21 21 20 20 20 20 20 20 20 19 19 19 19 19 20 20 20 20 21 21 21 21 21 21 21 22
17 17 18 18 18 18 19 20 21 20 19 19 19 20 20 20 20 21 21 21 22 22 23 23 24 23 23 21 21 21 22 23 25 25 25 25 24 23 23 23 22 22 22 22 22 22 22 22 22 22 22 22 22 22 22 22 22 22 22 22 22 23 23
19 18 19 20 20 20 20 20 21 21 20 20 21 21 22 22 22 23 23 23 24 24 25 25 25 24 24 23 23 23 23 24 26 27 28 28 28 26 25 25 24 24 24 24 25 25 24 24 24 24 24 24 24 24 24 24 24 24 24 24 24 24 25
20 20 20 21 21 21 21 20 21 21 21 22 22 22 21 22 23 23 24 24 25 25 25 25 25 25 25 25 25 25 25 26 27 28 29 30 30 29 28 27 27 27 27 27 27 27 26 26 26 26 27 27 27 27 26 26 27 26 26 26 26 26 27
21 21 21 21 21 21 21 21 21 22 22 22 22 22 22 23 23 24 24 24 24 24 25 25 25 26 27 27 27 27 28 28 29 30 30 30 30 30 29 29 29 29 29 28 29 29 28 28 28 28 29 29 29 29 29 29 28 28 28 29 29 29 29
20 20 20 20 21 21 22 22 22 23 23 23 23 24 24 25 25 25 25 25 26 26 26 27 28 28 29 29 29 30 30 30 31 32 32 32 31 31 31 31 30 30 29 29 29 30 30 30 31 30 30 31 31 31 31 31 31 30 31 31 32 32 32
20 20 20 20 20 21 21 22 22 23 23 23 24 24 25 26 26 26 26 27 27 27 28 29 29 30 30 31 31 31 31 31 32 32 33 33 33 33 33 32 32 31 31 30 31 31 31 31 31 31 32 32 33 33 33 32 32 32 33 33 34 34 34
20 21 21 21 21 21 22 23 23 24 24 24 25 25 25 26 26 26 26 26 27 27 28 29 29 29 30 30 31 31 31 31 31 32 32 33 33 33 32 32 31 31 31 32 32 32 32 32 32 33 33 34 34 34 33 33 33 34 34 35 36 36 36
21 22 22 22 22 23 23 24 24 25 25 26 26 27 27 27 27 27 27 27 27 27 28 28 28 28 28 28 29 30 30 30 30 31 31 32 32 32 32 32 32 32 32 33 33 34 34 34 34 35 35 35 35 34 34 34 34 35 36 36 37 37 38
23 23 23 24 24 24 24 25 25 26 26 27 27 28 28 28 28 28 28 28 28 28 28 28 27 27 27 27 27 28 28 28 28 29 30 31 31 31 32 32 33 32 33 33 34 34 34 35 35 36 36 36 35 35 35 35 36 36 36 37 37 38 39
26 26 25 25 25 25 26 26 26 27 27 27 28 28 28 28 28 28 28 28 28 28 28 28 28 27 26 26 26 27 27 27 27 28 28 29 30 30 31 31 32 32 33 34 34 34 34 35 36 36 36 36 35 35 36 36 36 37 38 38 39 40 41
27 27 27 26 27 27 27 28 28 28 28 28 29 29 29 29 29 29 29 29 29 29 29 29 28 28 27 27 27 27 28 28 28 28 29 30 30 31 31 32 32 32 33 34 34 34 35 35 36 36 36 36 36 37 37 37 37 38 39 39 40 41 42
28 27 27 27 27 28 29 29 29 29 29 29 30 30 30 30 30 30 30 30 30 30 30 30 29 29 28 28 28 28 28 29 29 29 30 30 31 32 32 33 33 33 33 34 34 34 34 35 35 36 36 36 37 38 38 38 38 39 39 40 40 41 41
29 28 28 28 29 30 30 31 31 31 31 31 31 31 31 30 30 31 30 30 30 30 30 30 30 29 29 28 28 28 28 28 28 29 29 30 31 31 32 32 33 33 33 33 34 34 34 35 35 36 36 37 37 38 38 38 38 39 40 40 41 41 41
30 30 30 30 30 31 32 32 32 32 32 32 32 32 31 31 31 31 31 31 30 30 30 29 29 28 28 28 28 28 28 28 28 28 29 29 30 31 31 32 32 32 32 33 33 34 34 35 35 36 37 37 37 38 38 38 39 40 40 40 40 40 40
33 33 32 32 32 32 32 32 33 33 32 32 32 32 32 32 32 32 31 31 30 30 30 29 29 28 28 28 28 28 28 28 28 28 29 29 30 30 31 31 32 32 33 33 33 34 35 35 36 36 36 37 37 38 38 38 39 39 39 39 40 40 40
36 36 35 35 34 34 34 33 33 33 33 33 33 32 32 32 32 31 31 30 30 30 30 30 30 29 29 29 29 28 28 28 28 29 29 30 30 30 31 31 32 32 33 33 34 34 35 35 35 35 36 36 36 36 37 37 37 37 38 38 38 39 39
Wind_Direction
301 312 323 328 328 317 297 276 261 252 246 243 242 241 236 234 234 239 246 249 250 249 250 253 255 256 251 245 245 246 245 245 244 243 243 244 246 248 251 254 256 259 260 261 260 259 260 262 265 265 265 265 262 262 264 265 266 263 261 259 257 255 252
291 302 315 320 320 313 299 282 268 258 253 247 243 236 226 225 226 232 237 235 236 239 243 252 257 257 250 243 243 246 246 246 244 243 243 244 245 247 248 250 253 257 260 260 259 258 256 257 261 262 265 267 264 264 265 265 265 263 261 261 261 259 255
278 288 302 309 309 305 293 278 270 263 257 252 243 229 216 213 216 222 228 230 231 234 239 245 245 244 244 240 238 238 237 238 237 238 239 240 242 243 244 247 251 255 257 259 260 260 259 259 261 263 267 271 269 268 268 267 265 263 263 264 265 265 260
264 275 284 287 291 292 281 268 261 255 252 249 239 225 215 210 213 220 226 227 226 229 236 241 240 237 236 235 231 228 227 227 228 230 234 237 239 242 245 249 252 254 257 259 260 262 263 265 265 266 269 271 269 269 272 270 265 263 264 266 268 269 264
255 263 267 268 271 274 268 259 250 242 237 234 227 217 209 207 208 208 204 200 196 198 203 205 213 215 217 220 217 217 221 224 227 230 233 237 240 244 250 253 255 257 259 260 260 263 265 265 264 265 269 270 267 268 272 269 265 264 266 269 272 273 270
249 254 258 258 256 257 257 249 240 231 220 213 209 200 195 192 189 182 170 164 162 159 155 147 142 142 148 164 176 189 205 216 224 228 231 236 240 243 247 252 255 258 260 263 263 266 267 265 265 266 268 268 267 268 269 267 266 267 269 271 274 277 277
242 247 251 250 244 240 243 242 233 221 207 197 192 186 180 174 168 163 155 150 147 141 134 130 125 120 118 118 120 122 141 180 209 220 223 227 234 239 242 247 253 257 261 266 267 270 271 269 270 270 270 269 268 268 269 268 267 266 269 271 271 275 279
237 242 245 243 236 230 231 234 228 213 199 187 180 176 169 163 160 155 151 148 144 137 131 126 119 114 111 105 101 95 87 82 71 85 223 220 229 240 244 248 255 261 266 271 274 276 277 276 276 278 280 275 270 270 268 267 268 267 271 272 268 271 279
235 238 241 240 236 232 228 228 224 212 201 190 181 176 171 165 161 157 155 152 147 141 140 140 132 122 114 104 98 85 69 58 45 34 350 307 266 251 251 259 268 271 273 280 289 291 287 287 287 289 295 289 280 279 274 270 269 267 274 278 269 269 281
233 235 240 237 235 235 231 229 225 216 209 202 195 189 182 177 173 168 168 167 162 157 157 162 165 169 177 177 158 39 9 346 346 339 317 314 300 284 284 287 291 289 284 292 306 309 302 299 297 296 298 294 286 284 280 280 276 269 276 284 275 273 282
233 232 237 234 232 235 233 232 230 223 220 218 214 209 203 201 202 200 199 200 201 202 209 217 226 235 246 256 265 275 282 286 294 293 291 296 293 291 294 294 296 297 296 301 306 309 307 302 301 300 297 293 291 286 281 283 282 276 280 286 283 280 283
233 229 234 233 233 235 234 234 233 231 230 229 228 226 225 226 228 231 230 231 232 234 238 243 249 253 257 261 265 270 274 275 279 278 276 278 278 281 283 282 286 292 291 294 298 300 302 300 298 298 296 295 295 292 288 288 286 283 285 288 288 287 286
235 231 233 235 235 236 235 234 235 237 237 236 236 235 236 238 240 242 243 246 249 251 252 255 260 262 262 263 265 266 268 269 269 269 268 267 267 268 269 269 272 277 281 285 289 291 293 293 293 293 294 294 293 292 292 291 289 289 290 290 289 290 289
239 235 234 235 236 236 235 235 237 239 239 239 239 238 242 245 246 248 251 254 257 257 258 261 266 269 269 268 268 267 268 268 267 266 265 265 266 266 266 266 268 271 276 282 286 288 290 290 289 289 292 292 290 292 293 292 291 291 294 294 292 292 292
242 240 236 235 236 237 236 235 235 237 237 238 240 240 244 248 250 253 255 258 260 260 261 264 268 272 271 270 270 269 269 268 268 267 266 266 267 268 269 269 269 271 274 278 282 285 287 288 288 289 291 290 289 290 291 292 291 291 293 295 294 293 293
244 242 241 239 237 236 236 235 234 235 236 237 239 242 246 249 251 253 255 258 259 260 262 265 269 271 270 268 267 267 269 269 269 268 268 268 268 268 268 268 269 270 271 273 277 280 283 284 286 288 289 290 290 291 291 292 292 292 292 294 294 293 293
242 244 245 243 238 235 236 235 234 236 236 237 239 242 246 249 251 253 256 259 261 262 263 265 270 272 270 267 266 266 267 267 268 267 266 268 269 269 268 267 267 268 269 270 274 277 279 281 282 284 286 287 289 290 291 291 292 292 292 294 294 293 292
244 245 247 246 242 239 237 235 237 239 240 240 241 242 245 247 250 253 256 260 262 264 266 267 270 273 273 269 266 266 267 267 267 266 264 266 268 268 269 267 266 266 267 269 272 276 278 279 280 281 283 285 287 289 290 290 291 291 291 292 294 294 293
246 245 246 246 245 242 238 236 237 240 243 244 242 242 245 248 250 253 256 260 262 265 269 270 272 275 277 273 267 264 264 265 265 264 264 264 265 266 267 267 267 266 266 268 270 273 275 276 278 279 281 284 286 287 288 289 290 290 290 290 291 293 294
245 244 245 244 243 241 236 235 238 242 247 247 243 245 249 250 251 253 256 261 264 267 271 273 275 277 279 276 269 262 261 262 262 262 263 264 264 264 264 266 266 265 265 266 268 270 272 273 275 276 278 281 284 286 288 289 289 290 290 289 289 291 292
244 246 245 243 242 239 235 237 243 248 251 246 243 249 253 253 255 258 261 264 266 268 270 272 275 276 275 275 270 263 261 260 259 260 263 264 264 264 263 264 265 265 265 266 268 269 270 271 273 275 277 279 282 285 287 288 289 290 290 290 289 290 291
246 248 246 243 240 238 239 242 246 249 250 247 249 254 255 256 260 263 265 267 268 269 271 272 274 273 271 271 269 266 264 260 258 259 261 263 265 265 264 264 265 265 266 267 269 270 271 272 274 275 277 280 282 283 285 286 288 289 289 290 290 290 291
248 247 247 243 239 240 244 246 246 247 249 252 256 259 258 259 262 264 266 269 270 271 272 273 272 270 270 270 270 268 266 263 261 260 261 263 264 264 264 265 265 265 265 267 268 270 271 273 275 276 277 279 281 282 283 284 285 286 287 289 290 291 291
248 247 247 245 243 243 245 245 245 248 251 255 258 259 259 261 264 266 269 271 272 273 273 273 272 271 271 271 270 269 268 266 264 263 263 263 263 264 264 265 265 264 265 267 268 269 270 273 275 275 276 277 280 281 282 282 283 284 285 286 287 289 289
247 247 247 246 245 245 246 247 250 252 254 256 258 260 263 265 267 270 272 273 273 273 273 274 274 274 273 271 270 269 269 269 268 267 266 265 264 264 265 265 265 265 266 267 269 269 270 272 274 276 277 278 279 280 280 281 282 282 283 284 285 287 287
243 244 245 246 247 248 250 251 254 255 257 258 260 262 265 267 269 271 272 273 273 273 273 274 274 274 273 272 271 270 270 270 269 267 266 265 264 264 264 264 264 264 265 267 269 270 270 272 275 277 277 278 278 278 279 279 280 281 282 283 284 285 286
242 243 245 248 250 251 252 253 255 257 259 260 261 263 265 267 269 270 271 272 273 273 274 274 274 274 274 274 273 272 272 271 269 268 266 264 264 264 264 263 263 263 264 267 268 269 271 272 274 276 276 277 278 278 278 279 280 280 281 282 283 285 286
245 246 248 250 252 253 254 256 257 258 259 260 262 263 265 267 269 270 271 272 273 274 275 275 276 276 276 276 275 274 273 272 271 269 267 265 265 264 263 262 263 264 265 268 269 269 270 272 274 275 276 277 278 278 278 279 280 281 282 283 283 284 285
248 249 251 253 255 256 257 257 259 260 261 262 264 265 267 269 270 271 271 272 273 274 275 276 277 277 277 277 276 275 274 273 272 271 269 266 265 264 263 262 264 265 267 268 269 269 270 272 273 274 275 276 277 278 277 279 280 281 282 283 283 283 284
250 252 254 256 257 258 258 258 260 262 263 265 267 268 270 271 271 272 272 273 273 273 274 276 276 277 277 277 276 275 274 273 272 271 269 267 265 264 263 264 264 266 267 268 269 270 271 272 273 274 274 275 276 276 277 278 279 280 281 281 281 282 282
253 254 256 257 258 258 259 260 262 264 265 267 268 269 270 271 272 273 273 273 273 273 274 275 275 276 277 277 276 275 274 273 272 271 269 267 265 264 264 265 265 266 267 268 269 271 272 272 273 273 274 274 275 276 276 277 278 279 280 280 281 281 282
253 255 256 257 258 259 261 263 264 266 267 268 269 269 271 271 272 273 273 272 273 273 273 274 274 274 275 276 276 275 274 272 272 271 270 269 268 266 266 267 268 267 267 268 269 271 272 272 273 273 273 274 275 276 276 277 278 279 280 281 281 281 282
253 254 255 256 258 259 261 263 265 267 269 270 270 271 272 272 272 272 272 272 272 272 273 273 274 274 275 275 276 276 275 273 272 272 271 270 270 269 269 270 270 269 269 269 270 271 272 272 272 273 273 274 275 276 277 278 279 280 281 281 282 282 282
254 256 257 258 259 260 262 263 264 266 269 270 271 272 272 272 272 272 272 272 272 272 273 273 273 273 274 274 275 275 275 274 273 272 272 272 271 271 271 271 271 270 270 270 271 272 273 273 273 274 275 275 276 277 278 279 280 281 281 282 282 282 283
258 259 260 261 261 262 264 264 264 265 267 269 269 270 271 271 271 272 272 272 272 271 271 272 272 272 272 273 274 274 274 274 273 273 273 272 272 271 271 271 271 270 270 271 272 273 273 274 275 276 276 277 278 279 280 281 281 282 282 282 283 283 284
259 261 262 263 263 264 266 266 266 266 266 267 268 269 269 270 271 270 271 271 270 270 270 271 271 272 272 273 274 274 274 274 273 273 273 273 273 272 271 271 271 271 271 272 273 274 274 276 277 277 278 278 279 280 280 281 281 282 283 283 283 284 284
259 261 262 263 264 264 266 267 268 268 267 267 267 268 268 269 269 269 268 268 268 269 270 271 272 272 273 274 274 274 274 274 273 273 274 274 273 272 272 272 272 272 273 274 275 275 276 277 277 278 278 279 280 280 280 281 282 282 282 283 283 284 284